Wetbulb
52.71 52.11 51.39 51.20 51.23 51.25 51.58 51.58 49.44 47.65 46.11 44.35 43.96 44.10 44.27 44.25 44.24 43.60 43.48 42.22 42.33 42.04
50.82 50.29 50.36 50.41 51.18 51.51 50.94 48.50 46.07 44.84 43.68 43.35 43.06 42.73 42.65 42.92 42.20 42.22 42.18 41.98 41.73 41.05
49.98 50.03 50.28 50.22 49.51 48.85 47.92 45.48 44.02 43.11 42.65 42.25 42.01 41.80 41.53 41.67 41.47 40.79 41.56 41.00 40.58 40.56
48.82 48.90 48.85 48.67 47.80 46.55 44.94 43.66 42.71 42.17 41.73 41.25 40.93 40.85 40.49 40.47 40.32 39.91 40.33 40.80 40.05 39.41
47.67 47.42 46.90 46.33 45.27 43.90 43.08 42.37 42.08 41.33 40.79 40.27 39.97 40.16 39.72 39.63 40.20 39.70 39.45 39.62 39.31 38.84
46.16 45.72 45.47 44.28 42.69 41.67 41.48 41.22 40.55 40.14 39.63 39.32 39.43 39.55 40.42 40.39 40.14 39.98 39.59 39.14 38.40 38.33
45.01 44.44 43.61 42.17 41.18 40.70 40.57 40.19 39.84 39.45 39.01 38.98 39.33 40.09 40.29 40.15 39.79 39.65 39.38 39.04 38.67 38.48
43.63 42.48 41.16 40.35 40.03 39.75 39.64 39.45 39.14 38.68 38.86 39.25 39.64 39.87 39.88 39.47 39.30 39.18 38.95 39.06 38.91 39.08
41.13 40.20 39.77 39.33 39.06 38.88 38.78 38.82 38.57 38.76 39.45 40.08 39.66 39.17 38.21 38.63 38.18 38.22 37.81 37.34 37.85 38.18
39.55 38.92 38.80 38.55 38.25 37.97 38.03 38.57 39.59 39.84 39.21 37.83 37.62 36.97 37.61 38.06 37.66 37.20 37.15 36.74 36.39 36.02
38.69 37.94 37.93 37.70 37.43 38.33 39.63 39.17 38.20 37.15 36.61 35.99 35.88 35.91 36.37 36.84 36.73 36.36 36.24 36.12 35.88 35.38
37.97 37.14 37.42 38.37 38.44 38.47 37.62 36.69 35.96 35.33 34.84 34.63 34.91 35.41 35.14 35.75 35.71 35.18 35.30 35.89 36.11 35.78
37.55 38.27 38.19 37.45 36.54 36.15 35.33 34.13 34.12 33.77 34.45 34.34 33.78 34.54 34.80 35.33 35.18 34.13 34.42 35.43 35.81 36.50
37.81 36.99 35.89 35.45 35.14 34.37 34.01 33.53 33.56 33.36 34.26 33.97 33.90 33.95 34.60 35.21 34.67 33.91 33.57 33.91 34.35 35.34
MSLP
1018.61 1018.81 1019.04 1019.20 1019.36 1019.55 1019.72 1020.09 1020.53 1020.81 1020.96 1021.19 1021.40 1021.55 1021.62 1021.61 1021.64 1021.71 1021.74 1021.79 1021.82 1021.66
1018.57 1018.88 1019.08 1019.36 1019.52 1019.66 1019.98 1020.36 1020.65 1020.87 1021.12 1021.36 1021.51 1021.59 1021.62 1021.59 1021.59 1021.69 1021.73 1021.77 1021.75 1021.60
1018.61 1019.00 1019.27 1019.52 1019.60 1019.80 1020.14 1020.46 1020.72 1020.95 1021.07 1021.26 1021.43 1021.62 1021.75 1021.71 1021.69 1021.64 1021.48 1021.47 1021.41 1021.25
1018.83 1019.21 1019.44 1019.51 1019.70 1019.97 1020.31 1020.53 1020.73 1020.96 1021.23 1021.40 1021.53 1021.64 1021.64 1021.59 1021.62 1021.56 1021.29 1021.12 1021.12 1020.96
1018.95 1019.26 1019.42 1019.57 1019.82 1020.13 1020.30 1020.58 1020.84 1021.12 1021.32 1021.45 1021.58 1021.61 1021.59 1021.54 1021.36 1021.24 1020.98 1020.77 1020.64 1020.47
1018.97 1019.21 1019.34 1019.62 1020.01 1020.30 1020.52 1020.76 1021.01 1021.21 1021.32 1021.42 1021.46 1021.48 1021.40 1021.32 1021.08 1020.82 1020.53 1020.31 1020.00 1019.69
1018.83 1019.13 1019.42 1019.81 1020.13 1020.48 1020.69 1020.83 1021.09 1021.29 1021.39 1021.41 1021.42 1021.40 1021.21 1020.99 1020.70 1020.37 1020.13 1019.87 1019.63 1019.29
1018.95 1019.32 1019.66 1019.95 1020.28 1020.61 1020.86 1021.04 1021.21 1021.28 1021.33 1021.35 1021.31 1021.10 1020.97 1020.76 1020.40 1019.95 1019.59 1019.33 1019.00 1018.68
1019.14 1019.56 1019.87 1020.17 1020.46 1020.75 1020.89 1021.00 1021.14 1021.19 1021.23 1021.15 1021.03 1021.05 1021.08 1020.84 1020.23 1019.69 1019.17 1018.65 1018.43 1018.17
1019.41 1019.77 1020.11 1020.43 1020.65 1020.80 1020.90 1021.09 1021.12 1021.08 1021.11 1021.03 1020.95 1020.97 1020.83 1020.46 1019.92 1019.33 1018.84 1018.51 1018.20 1017.75
1019.67 1020.02 1020.40 1020.58 1020.71 1020.86 1020.98 1021.07 1021.15 1021.13 1021.06 1020.92 1020.74 1020.72 1020.52 1020.16 1019.56 1018.93 1018.52 1018.23 1017.84 1017.52
1020.01 1020.28 1020.49 1020.65 1020.80 1021.00 1021.15 1021.16 1021.15 1021.12 1020.91 1020.71 1020.54 1020.49 1020.28 1019.88 1019.15 1018.52 1018.01 1017.69 1017.31 1017.13
1020.41 1020.50 1020.70 1020.95 1021.07 1021.28 1021.32 1021.31 1021.20 1020.88 1020.75 1020.59 1020.41 1020.26 1020.11 1019.71 1018.97 1018.30 1017.55 1017.14 1016.71 1016.46
1020.80 1021.00 1021.19 1021.29 1021.39 1021.38 1021.24 1021.13 1020.95 1020.74 1020.52 1020.36 1020.29 1020.06 1019.87 1019.55 1019.02 1018.24 1017.48 1016.79 1016.17 1015.86
Wind_Speed
5 3 3 4 3 3 3 3 5 4 3 4 3 3 2 2 1 2 2 4 4 4
5 4 3 4 3 2 3 3 5 4 4 3 3 3 2 2 2 2 3 4 5 5
4 4 3 3 4 4 4 5 5 4 4 4 3 2 2 2 3 4 4 4 7 7
5 4 4 4 4 4 4 5 5 4 3 3 2 2 4 4 5 6 7 7 8 10
5 5 5 4 4 4 5 4 3 3 3 3 3 4 5 5 6 8 9 10 10 11
6 5 5 4 4 4 3 3 3 2 3 3 4 5 5 6 9 10 10 11 12 12
6 5 4 4 4 3 3 2 2 2 3 4 5 6 7 9 10 11 11 12 12 13
5 5 5 5 4 3 2 1 1 2 3 4 5 5 8 10 12 13 13 13 13 13
6 5 5 4 4 4 3 1 1 2 4 6 5 7 12 13 12 13 14 14 14 14
6 6 5 5 4 3 2 2 2 4 5 7 8 10 14 16 12 13 13 13 13 13
6 6 5 5 4 3 1 3 4 5 6 7 8 12 14 16 13 11 13 13 13 14
6 6 5 4 4 3 3 4 5 6 7 8 9 11 14 14 11 11 13 12 13 13
6 5 5 4 3 2 4 5 5 7 7 9 9 10 13 13 9 12 11 13 13 16
5 4 3 2 3 4 5 6 7 8 8 8 7 10 13 14 10 10 11 11 11 11
Wind_Direction
177 192 198 197 192 200 199 178 158 170 175 172 171 164 181 205 243 292 296 286 282 294
177 180 182 170 173 173 157 157 168 173 177 173 178 195 208 254 283 289 293 290 288 284
163 162 155 169 167 168 156 165 166 178 186 190 197 209 273 291 293 289 288 287 290 288
156 161 166 173 169 168 162 174 185 187 198 210 228 245 264 275 292 291 296 291 286 284
156 167 177 176 166 172 183 172 182 192 211 230 251 263 277 287 293 295 294 293 285 274
173 178 175 163 163 159 160 166 158 207 243 267 283 287 287 292 291 288 283 279 279 280
169 166 153 139 140 151 158 165 180 232 272 284 289 287 294 293 294 291 287 285 282 282
138 130 124 131 143 132 134 154 200 288 275 273 282 291 312 307 300 295 294 293 287 283
126 125 128 124 127 141 140 136 233 255 282 295 295 319 308 303 301 297 294 293 293 292
128 123 117 126 124 117 133 162 265 296 305 307 309 311 310 312 302 301 297 297 297 297
118 117 119 120 123 116 71 340 322 315 315 312 307 313 317 316 302 301 298 298 297 298
118 119 122 103 61 36 331 320 312 313 316 312 311 320 319 319 309 302 302 303 302 306
106 97 78 52 17 351 318 313 314 309 305 306 306 319 324 326 316 307 310 309 306 304
77 77 54 19 346 326 324 314 312 308 312 309 314 317 328 329 319 315 313 310 310 311